Location: Prague
(50.0830°N, 14.4670°E)
Time: 09:21:33
(UTC+01:00)

Oscar 11 - Pass Details

Date: 05 December 2021
Orbit: 611 x 625 km, 97.6° (Epoch: 26 January)

Event Time Altitude Azimuth Distance (km) Brightness Sun altitude
Rises 17:10:07 0° 189° (S) 2,895 11.0 -10.5°
Reaches altitude 10° 17:12:28 10° 199° (SSW) 1,994 10.3 -10.9°
Maximum altitude 17:16:25 34° 264° (W) 1,047 9.0 -11.5°
Drops below altitude 10° 17:20:24 10° 330° (NNW) 2,012 9.8 -12.1°
Sets 17:22:47 0° 340° (NNW) 2,924 10.5 -12.4°
